Location: Miami, Florida
(25.6830°N, 80.1700°W)
Time: 13:37:47
(UTC-04:00)

Vanguard 2 - All Passes

Search period start: 23 June 2018 00:00
Search period end: 03 July 2018 00:00
Orbit: 553 x 2939 km, 32.9° (Epoch: 22 June)

Date Brightness Start Highest point End Pass type
(mag) Time Alt. Az. Time Alt. Az. Time Alt. Az.
23 Jun - 00:04:18 10° SSW 00:13:40 21° SSE 00:20:39 10° ESE night (unlit)
23 Jun - 02:13:21 10° SW 02:24:26 55° SSE 02:31:03 10° ENE visible
23 Jun - 04:25:48 10° W 04:33:47 60° NNW 04:38:45 10° ENE visible
23 Jun - 06:38:05 10° WNW 06:42:49 33° N 06:46:33 10° ENE daylight
23 Jun - 08:47:28 10° WNW 08:51:30 72° NNE 08:55:41 10° ESE daylight
23 Jun - 10:56:25 10° WSW 10:59:41 21° SSW 11:03:45 10° SSE daylight
24 Jun - 00:20:44 10° SSW 00:32:10 30° SSE 00:40:01 10° E night (unlit)
24 Jun - 02:31:22 10° WSW 02:42:41 72° SSE 02:49:14 10° ENE visible
24 Jun - 04:44:31 10° W 04:52:00 49° NNW 04:56:47 10° ENE visible
24 Jun - 06:56:28 10° WNW 07:01:08 36° N 07:04:52 10° ENE daylight
24 Jun - 09:05:36 10° WNW 09:09:34 71° SSW 09:13:49 10° ESE daylight
24 Jun - 11:15:57 10° SW 11:17:53 12° SSW 11:20:01 10° S daylight
24 Jun - 22:31:46 10° S 22:38:46 14° SSE 22:44:48 10° ESE visible
25 Jun - 00:37:49 10° SW 00:50:35 40° SSE 00:58:47 10° E visible
25 Jun - 02:49:42 10° WSW 03:00:53 89° NNW 03:07:19 10° ENE visible
25 Jun - 05:03:15 10° W 05:10:15 43° N 05:14:52 10° ENE visible
25 Jun - 07:14:43 10° WNW 07:19:25 44° NNE 07:23:13 10° E daylight
25 Jun - 09:23:52 10° W 09:27:36 40° SSW 09:31:40 10° SE daylight
25 Jun - 22:46:43 10° S 22:57:23 21° SSE 23:05:46 10° ESE visible
26 Jun - 00:55:20 10° SW 01:08:55 53° SSE 01:17:15 10° ENE visible
26 Jun - 03:08:16 10° WSW 03:19:05 73° NNW 03:25:22 10° ENE visible
26 Jun - 05:21:57 10° WNW 05:28:34 40° N 05:33:02 10° ENE visible
26 Jun - 07:32:54 10° WNW 07:37:37 60° NNE 07:41:31 10° E daylight
26 Jun - 09:42:25 10° W 09:45:37 23° SSW 09:49:05 10° SSE daylight
26 Jun - 23:02:55 10° SSW 23:15:53 29° SSE 23:25:24 10° E visible
27 Jun - 01:13:14 10° SW 01:27:14 67° SSE 01:35:32 10° ENE visible
27 Jun - 03:27:01 10° W 03:37:20 61° NNW 03:43:25 10° ENE visible
27 Jun - 05:40:33 10° WNW 05:46:56 41° N 05:51:17 10° ENE visible
27 Jun - 07:51:05 10° WNW 07:55:45 89° SSW 07:59:41 10° ESE daylight
27 Jun - 10:01:45 10° WSW 10:03:39 13° SSW 10:05:38 10° S daylight
27 Jun - 21:15:19 10° SSE 21:21:58 13° SE 21:28:03 10° ESE visible
27 Jun - 23:19:48 10° SSW 23:34:18 39° SSE 23:44:23 10° E visible
28 Jun - 01:31:27 10° WSW 01:45:29 83° SSE 01:53:40 10° ENE visible
28 Jun - 03:45:51 10° W 03:55:37 53° NNW 04:01:29 10° ENE visible
28 Jun - 05:59:01 10° WNW 06:05:17 46° N 06:09:35 10° E visible
28 Jun - 08:09:20 10° WNW 08:13:47 54° SSW 08:17:37 10° SE daylight
28 Jun - 21:29:35 10° S 21:40:33 20° SE 21:49:54 10° ESE visible
28 Jun - 23:37:08 10° SW 23:52:40 50° SSE 00:02:59 10° E visible
29 Jun - 01:49:57 10° WSW 02:03:45 83° NNW 02:11:45 10° ENE visible
29 Jun - 04:04:42 10° W 04:13:59 49° N 04:19:38 10° ENE visible
29 Jun - 06:17:22 10° WNW 06:23:35 56° NNE 06:27:51 10° E daylight
29 Jun - 08:27:48 10° W 08:31:43 30° SSW 08:35:13 10° SSE daylight
29 Jun - 21:45:28 10° SSW 21:59:00 28° SE 22:09:58 10° E visible
29 Jun - 23:54:52 10° SW 00:11:00 63° SSE 00:21:22 10° ENE visible
30 Jun - 02:08:40 10° WSW 02:22:03 71° NNW 02:29:50 10° ENE visible
30 Jun - 04:23:29 10° WNW 04:32:23 48° N 04:37:51 10° ENE visible
30 Jun - 06:35:40 10° WNW 06:41:48 77° NNE 06:46:02 10° ESE daylight
30 Jun - 08:46:44 10° WSW 08:49:35 17° SW 08:52:16 10° S daylight
30 Jun - 20:01:11 10° SSE 20:04:52 11° SE 20:08:28 10° SE daylight
30 Jun - 22:02:06 10° SSW 22:17:22 37° SE 22:29:14 10° E visible
01 Jul - 00:12:56 10° WSW 00:29:18 77° SSE 00:39:36 10° ENE visible
01 Jul - 02:27:32 10° W 02:40:24 62° NNW 02:47:57 10° ENE visible
01 Jul - 04:42:09 10° WNW 04:50:48 50° N 04:56:07 10° E visible
01 Jul - 06:53:58 10° WNW 06:59:53 73° SSW 07:04:04 10° ESE daylight
01 Jul - 20:13:28 10° S 20:23:22 17° SE 20:32:39 10° ESE daylight
01 Jul - 22:19:14 10° SW 22:35:41 47° SSE 22:48:03 10° E visible
02 Jul - 00:31:17 10° WSW 00:47:37 90° SSE 00:57:45 10° ENE visible
02 Jul - 02:46:29 10° W 02:58:49 57° N 03:06:05 10° ENE visible
02 Jul - 05:00:43 10° WNW 05:09:12 57° N 05:14:23 10° E visible
02 Jul - 07:12:23 10° WNW 07:17:51 45° SSW 07:21:50 10° SE daylight
02 Jul - 20:28:49 10° S 20:41:43 25° SE 20:53:28 10° E visible
02 Jul - 22:36:46 10° SW 22:54:00 59° SSE 23:06:35 10° ENE visible
